Location: *
(43.6428°N, 11.5461°E)
Time: 05:17:33
(UTC+00:00)

CSL-04 Rocket - Pass Details

Date: 21 October 2019
Orbit: 805 x 861 km, 99.0° (Epoch: 16 November)

Event Time Altitude Azimuth Distance (km) Brightness Sun altitude
Rises 17:06:22 0° 148° (SSE) 3,419 6.6 -8.8°
Reaches altitude 10° 17:08:48 10° 143° (SE) 2,483 5.8 -9.3°
Maximum altitude 17:14:06 50° 69° (ENE) 1,082 3.9 -10.2°
Drops below altitude 10° 17:19:22 10° 356° (N) 2,470 6.1 -11.2°
Sets 17:21:47 0° 351° (N) 3,401 6.9 -11.6°
